DW7780 Weather Reports


time (UTC)temp
C
wind
direction
speed
KPH
gust
KPH
rain 1hr
cm
rain 24hr
cm
rain mn
cm
humidity
%
barometer
mb
20260905034539 22 0 0.0 0.0 0.00 0.05 0.05 91 1011.4
20260905033033 22 0 0.0 0.0 0.00 0.05 0.05 91 1011.4
20260905031537 22 0 0.0 0.0 0.00 0.05 0.05 91 1011.3
20260905030037 22 0 0.0 0.0 0.00 0.05 0.05 90 1011.3
20260905024534 22 0 0.0 0.0 0.00 0.05 0.05 90 1011.1
20260905023039 22 0 0.0 0.0 0.00 0.05 0.05 91 1011.3
20260905021540 22 0 0.0 0.0 0.00 0.05 0.05 90 1011.2
20260905020034 22 0 0.0 0.0 0.00 0.05 0.05 90 1011.3
20260905014534 22 0 0.0 0.0 0.00 0.05 0.05 90 1011.4
20260905013033 23 0 0.0 0.0 0.00 0.05 0.05 90 1011.3
20260905011536 23 0 0.0 0.0 0.00 0.05 0.05 90 1011.3
20260905010033 23 0 0.0 0.0 0.00 0.05 0.05 90 1011.3
20260905004540 23 0 0.0 0.0 0.00 0.05 0.05 89 1011.2
20260905003034 23 0 0.0 0.0 0.00 0.05 0.05 88 1011.2
20260905001531 23 0 0.0 0.0 0.00 0.05 0.05 87 1011.0
20260905000033 23 0 0.0 0.0 0.00 0.05 0.05 87 1010.8
20260904234545 24 0 0.0 0.0 0.00 0.05 0.05 86 1010.7
20260904233051 24 0 0.0 0.0 0.00 0.05 0.05 84 1010.7
20260904231534 25 0 0.0 0.0 0.00 0.05 0.05 85 1010.6
20260904230035 25 0 0.0 0.0 0.00 0.05 0.05 84 1010.7
20260904224541 25 0 0.0 0.0 0.00 0.08 0.05 83 1010.7
20260904223040 25 0 0.0 0.0 0.00 0.08 0.05 81 1011.0
20260904221533 26 0 0.0 0.0 0.00 0.08 0.05 81 1011.0
20260904220034 26 0 0.0 1.6 0.00 0.08 0.05 80 1011.2
20260904214540 27 0 0.0 0.0 0.00 0.08 0.05 77 1010.9
20260904213036 27 0 0.0 4.8 0.00 0.08 0.05 72 1011.0
20260904211532 27 0 0.0 3.2 0.00 0.08 0.05 72 1010.9
20260904210040 27 0 0.0 4.8 0.00 0.08 0.05 69 1010.8
20260904204534 27 0 0.0 1.6 0.00 0.08 0.05 70 1011.0
20260904203033 27 0 0.0 6.4 0.00 0.08 0.05 72 1011.1
20260904201535 27 0 0.0 3.2 0.00 0.08 0.05 75 1011.1
20260904200035 27 0 0.0 9.7 0.00 0.08 0.05 70 1011.4
20260904194540 27 0 0.0 6.4 0.00 0.08 0.05 69 1011.5
20260904193044 27 0 0.0 4.8 0.00 0.08 0.05 72 1011.8
20260904191533 27 281 0.0 9.7 0.00 0.08 0.05 71 1012.0
20260904190036 27 0 0.0 3.2 0.00 0.08 0.05 71 1012.1
20260904184538 27 262 0.0 6.4 0.00 0.08 0.05 71 1012.3
20260904183032 26 0 0.0 0.0 0.00 0.08 0.05 74 1012.4
20260904181531 26 0 0.0 0.0 0.00 0.08 0.05 72 1012.4
20260904180032 27 0 0.0 0.0 0.00 0.08 0.05 75 1012.7
20260904174536 27 0 0.0 0.0 0.00 0.08 0.05 75 1012.5
20260904173042 27 0 0.0 3.2 0.00 0.08 0.05 72 1012.4
20260904171532 27 0 0.0 4.8 0.00 0.08 0.05 71 1012.2
20260904170033 27 250 1.6 8.0 0.00 0.08 0.05 71 1012.4
20260904164534 27 0 0.0 6.4 0.00 0.08 0.05 71 1012.5
20260904163036 27 286 0.0 14.5 0.00 0.08 0.05 74 1012.5
20260904161532 26 298 0.0 9.7 0.00 0.08 0.05 74 1012.5
20260904160040 27 0 0.0 9.7 0.00 0.08 0.05 73 1012.6
20260904154533 26 276 1.6 9.7 0.00 0.08 0.05 75 1012.6
20260904153043 26 0 0.0 6.4 0.00 0.08 0.05 74 1012.7
20260904151536 26 0 0.0 6.4 0.00 0.08 0.05 76 1012.7
20260904150036 26 275 0.0 4.8 0.00 0.08 0.05 78 1012.7
20260904144534 26 0 3.2 11.3 0.00 0.08 0.05 78 1012.9
20260904143033 25 302 3.2 9.7 0.00 0.08 0.05 80 1012.8
20260904141544 25 0 1.6 6.4 0.00 0.08 0.05 81 1012.6
20260904140032 25 284 3.2 11.3 0.00 0.08 0.05 82 1012.5
20260904134534 25 0 0.0 6.4 0.00 0.08 0.05 83 1012.8
20260904133033 24 0 0.0 4.8 0.00 0.08 0.05 86 1012.6
20260904131533 23 0 0.0 9.7 0.00 0.08 0.05 88 1012.6
20260904130033 23 0 0.0 6.4 0.00 0.08 0.05 91 1012.6
20260904124537 23 0 0.0 6.4 0.00 0.08 0.05 92 1012.6
20260904123033 22 0 0.0 4.8 0.00 0.08 0.05 95 1012.8
20260904121533 22 0 0.0 9.7 0.00 0.08 0.05 95 1012.5
20260904120034 22 0 0.0 4.8 0.00 0.08 0.05 96 1012.3
20260904114543 22 277 1.6 4.8 0.00 0.08 0.05 97 1012.3
20260904113033 21 0 1.6 6.4 0.00 0.08 0.05 97 1012.2
20260904111534 21 0 0.0 3.2 0.00 0.08 0.05 97 1012.1
20260904110037 22 0 0.0 3.2 0.00 0.08 0.05 97 1011.8
20260904104532 22 0 0.0 0.0 0.00 0.08 0.05 97 1011.6
20260904103037 22 0 0.0 1.6 0.00 0.08 0.05 97 1011.4
20260904101537 22 0 0.0 0.0 0.00 0.08 0.05 97 1011.4
20260904100032 22 0 0.0 3.2 0.00 0.08 0.05 98 1011.5
20260904094537 22 0 0.0 1.6 0.00 0.20 0.05 98 1011.6
20260904093035 22 0 0.0 0.0 0.00 0.20 0.05 98 1011.5
20260904091535 22 0 0.0 0.0 0.00 0.20 0.05 97 1011.6
20260904090033 22 0 0.0 0.0 0.00 0.20 0.05 97 1011.8
20260904084532 22 0 0.0 0.0 0.00 0.58 0.05 97 1011.6
20260904083041 22 0 0.0 0.0 0.00 0.58 0.05 97 1011.6
20260904081532 22 0 0.0 0.0 0.00 0.58 0.05 97 1011.5
20260904080033 22 0 0.0 0.0 0.00 0.58 0.05 97 1011.7
20260904074536 22 0 0.0 0.0 0.00 0.64 0.05 97 1011.7
20260904073031 22 0 0.0 0.0 0.00 0.64 0.05 97 1011.4
20260904071535 22 0 0.0 0.0 0.00 0.64 0.05 97 1011.3
20260904070031 22 0 0.0 0.0 0.00 0.64 0.05 97 1011.0
20260904064534 22 0 0.0 0.0 0.00 0.86 0.05 97 1010.9
20260904063044 22 0 0.0 0.0 0.03 0.86 0.05 97 1011.1
20260904061536 22 0 0.0 0.0 0.05 0.86 0.05 97 1011.2
20260904060053 22 0 0.0 0.0 0.05 0.86 0.05 97 1011.8
20260904054533 22 0 0.0 0.0 0.05 1.55 0.05 97 1012.1
20260904053035 22 0 0.0 0.0 0.03 1.52 0.03 97 1012.3
20260904051532 22 0 0.0 0.0 0.00 1.47 0.00 97 1012.2
20260904050033 22 0 0.0 0.0 0.00 1.47 0.00 97 1012.2
20260904044543 22 0 0.0 0.0 0.00 1.47 0.00 97 1011.8
20260904043037 22 0 0.0 0.0 0.00 1.47 0.00 97 1011.7
20260904041536 22 0 0.0 0.0 0.00 1.47 0.00 96 1012.1
20260904040037 22 0 0.0 0.0 0.00 1.47 0.00 95 1012.2